Temp_Advection
nan nan nan nan nan nan nan nan nan nan nan nan nan nan nan nan nan nan nan nan nan nan nan nan nan nan nan nan nan nan nan nan
nan -0 -1 -1 0 1 1 1 1 1 1 1 0 0 -0 0 -0 0 1 0 0 -0 -1 -0 1 -0 -0 -0 0 0 1 nan
nan 0 -1 -0 1 0 1 1 1 1 1 1 1 0 0 0 0 0 0 -0 -0 -0 0 1 0 -1 -0 -0 -0 0 -0 nan
nan -0 -0 -1 1 1 2 1 1 2 2 1 0 0 0 0 0 -0 -0 -0 -0 0 0 -0 -1 -1 -0 -0 -0 -0 -1 nan
nan -2 -1 -1 1 2 1 0 1 2 2 0 -0 0 0 -0 -0 -0 -1 -0 0 0 -0 -0 -0 0 0 -0 0 -0 -0 nan
nan -2 -2 -1 -0 1 1 0 1 1 1 0 0 1 0 -0 0 0 -0 0 0 -0 0 0 0 0 -0 0 0 -0 0 nan
nan -2 -2 -1 1 1 1 1 1 1 1 0 0 1 0 0 -0 -0 0 0 -0 0 -0 -1 -0 0 -0 0 0 0 -0 nan
nan -1 -1 -2 -1 1 1 1 0 1 1 0 1 1 0 0 -0 0 0 0 0 -0 -0 0 1 -0 -0 1 0 0 0 nan
nan 0 -1 -1 -1 -0 1 1 1 1 1 0 1 1 1 0 1 0 0 0 0 0 0 0 -0 -0 0 0 1 0 1 nan
nan 1 -1 -1 -1 -0 0 0 1 1 1 1 1 1 0 0 0 0 0 0 0 0 -0 -0 0 0 -0 1 1 1 2 nan
nan -0 2 -0 -0 0 -0 0 0 1 2 1 1 0 0 0 -0 -0 0 -0 -0 -0 -0 0 0 -0 1 1 0 1 2 nan
nan -1 -0 0 0 0 -0 -0 -0 1 1 1 0 0 0 -0 -0 0 -0 -0 -0 0 0 0 0 0 0 0 -0 1 1 nan
nan -2 -1 -0 -0 0 0 -1 -1 0 1 0 0 0 -0 -0 -0 -0 0 0 -0 0 0 0 0 0 0 0 0 1 0 nan
nan -2 -2 -1 -0 0 -0 -1 -1 0 0 1 0 0 0 0 -0 0 0 -0 -0 0 0 0 0 0 0 0 0 0 0 nan
nan -0 -1 -1 -1 -0 -0 -1 -0 0 1 1 0 0 -0 0 0 0 0 0 0 0 0 0 0 1 1 0 0 0 1 nan
nan 0 0 -1 -1 -0 -0 -0 0 1 1 0 0 0 0 0 0 0 0 0 0 0 0 0 0 0 0 0 0 0 0 nan
nan -0 0 0 -1 -1 -0 -0 0 -0 0 0 0 -0 -0 -0 0 0 -0 0 0 0 0 0 0 0 0 0 0 1 1 nan
nan -0 -0 0 0 -1 -0 -0 -0 0 0 0 0 -0 -0 -0 0 -0 0 0 0 0 0 0 0 0 0 0 0 0 0 nan
nan nan nan nan nan nan nan nan nan nan nan nan nan nan nan nan nan nan nan nan nan nan nan nan nan nan nan nan nan nan nan nan
Wind_Speed
37 30 34 28 30 27 33 40 35 31 24 24 21 22 24 24 28 26 28 35 43 57 49 55 50 44 41 46 46 39 33 29
40 35 35 23 27 20 27 36 35 32 29 24 23 24 25 25 22 21 19 26 46 51 53 48 53 45 42 46 47 42 36 31
38 33 24 21 23 21 26 34 36 33 27 23 23 23 22 20 17 16 15 20 34 53 51 50 52 45 42 46 50 46 39 33
34 30 25 21 23 24 29 37 35 32 24 23 22 20 19 19 16 15 20 26 31 37 42 43 47 45 42 45 49 49 45 37
28 31 30 24 23 23 31 35 35 29 25 26 25 26 26 24 22 18 23 28 35 30 34 34 39 39 41 45 49 49 48 43
26 29 28 27 23 24 30 37 33 28 28 28 25 25 23 23 22 24 25 28 32 34 33 35 34 38 39 44 49 51 49 47
25 30 23 20 25 22 31 39 34 29 30 29 26 25 25 23 26 28 31 32 33 33 37 36 37 36 40 44 48 50 49 49
37 29 32 22 25 25 33 41 36 32 31 30 28 26 24 25 25 27 30 35 36 36 41 41 44 41 41 44 49 50 49 50
33 35 34 26 23 26 33 42 37 33 32 29 28 27 27 28 28 27 30 34 39 40 44 42 43 43 41 45 47 48 47 46
30 34 36 32 26 26 32 42 39 33 32 28 27 26 25 25 26 29 33 34 36 44 44 44 47 46 45 43 46 49 46 45
29 33 42 38 27 23 26 38 37 31 31 27 28 26 24 21 19 19 23 28 33 39 43 44 54 52 52 50 47 49 48 49
31 36 44 41 22 22 24 35 33 27 28 25 28 26 23 19 16 15 20 22 22 23 33 46 52 59 54 51 45 45 51 50
32 39 45 29 20 21 24 33 30 27 26 23 26 25 23 20 15 11 11 14 14 13 23 29 41 49 53 52 46 47 41 38
33 41 40 21 18 20 23 27 28 26 23 23 23 24 24 21 17 12 9 8 15 14 14 30 35 30 39 43 46 34 38 37
26 35 37 23 18 19 22 25 24 25 23 24 23 23 24 23 18 14 10 8 11 12 18 20 28 34 37 37 30 32 39 37
28 32 38 31 17 16 17 18 21 25 24 23 22 22 23 21 20 16 13 11 9 9 13 21 24 30 35 37 28 27 27 25
14 24 31 29 22 14 15 13 18 22 24 23 22 21 23 21 20 17 15 14 12 11 14 14 18 23 21 20 19 22 23 21
14 17 22 27 25 16 9 14 14 19 22 22 23 22 22 23 21 17 15 17 16 15 14 14 16 15 18 19 17 17 19 19
16 22 21 20 24 13 12 12 20 19 21 22 21 20 20 21 20 19 17 18 18 16 15 14 14 15 15 16 16 18 19 22
Wind_Direction
307 305 302 287 296 261 249 239 229 228 227 235 233 228 228 232 234 252 251 237 215 204 209 200 194 200 195 194 195 195 196 193
310 308 304 286 295 259 241 227 225 220 222 226 224 222 222 228 242 255 243 229 220 188 201 201 195 198 195 195 195 197 193 195
320 313 292 292 288 260 236 221 222 221 225 225 224 220 221 229 236 255 218 196 195 194 201 203 194 198 196 197 196 193 196 193
324 319 300 293 281 258 233 216 216 222 221 220 213 211 217 222 208 213 188 186 186 194 200 201 197 198 197 199 201 200 196 191
317 315 303 294 280 258 231 216 217 219 216 216 213 208 209 210 197 194 184 190 192 194 194 199 200 200 201 201 202 203 203 197
337 335 295 293 277 256 228 217 217 218 217 217 216 210 215 212 196 198 199 202 200 205 205 204 207 209 206 207 205 205 205 207
340 347 334 274 265 250 224 216 216 218 219 216 219 211 206 209 207 200 191 205 207 208 202 206 214 215 213 210 211 209 208 212
356 348 352 307 257 245 224 215 213 217 219 217 215 212 211 210 212 211 211 207 203 216 212 212 216 221 218 214 214 212 212 215
346 354 357 333 290 258 229 217 213 214 215 218 213 210 211 217 216 216 219 220 219 215 216 219 220 219 222 219 217 217 216 216
339 344 345 336 309 271 240 220 215 214 218 217 211 209 212 216 221 221 222 223 226 228 222 225 226 225 222 220 217 217 216 223
333 340 338 332 300 272 249 224 221 215 217 216 210 207 212 213 222 219 226 227 232 238 234 227 219 225 228 221 215 215 217 219
345 340 331 333 286 263 245 221 216 219 217 212 209 206 207 202 206 217 233 231 231 239 245 233 212 219 222 223 217 220 217 219
354 343 335 324 266 250 233 220 213 222 213 213 211 208 204 205 198 204 219 229 241 239 237 222 214 216 217 227 212 220 206 211
354 342 342 321 268 251 232 219 211 220 212 216 212 210 209 203 200 192 201 220 231 232 232 216 201 218 221 219 207 221 209 215
346 331 338 341 301 269 238 218 214 217 212 212 213 210 213 210 200 196 202 203 201 215 223 226 223 214 204 208 208 203 204 200
344 325 335 342 340 267 255 233 226 220 213 210 208 210 212 211 202 200 201 206 201 197 206 205 207 201 197 197 202 203 191 207
311 315 325 334 339 322 250 248 231 225 220 215 213 212 209 210 204 206 204 200 196 191 190 197 210 208 214 194 185 201 209 208
314 305 313 331 333 329 274 250 250 229 221 218 214 210 207 208 204 210 207 203 195 188 185 188 196 197 200 198 194 201 209 215
321 319 322 328 321 321 295 226 232 222 216 213 211 207 202 200 203 206 202 205 202 195 190 193 190 194 196 203 207 213 217 222
Height
1419 1416 1413 1410 1409 1407 1412 1418 1424 1428 1433 1436 1437 1439 1441 1444 1445 1445 1446 1446 1451 1453 1463 1472 1484 1492 1498 1506 1513 1519 1525 1532
1410 1407 1404 1401 1401 1401 1404 1409 1418 1422 1425 1429 1431 1433 1436 1438 1440 1439 1438 1438 1445 1444 1456 1468 1479 1487 1494 1503 1511 1516 1524 1530
1403 1399 1395 1395 1395 1395 1399 1404 1412 1417 1421 1424 1426 1429 1432 1435 1436 1434 1436 1436 1437 1443 1453 1464 1476 1484 1491 1498 1505 1512 1520 1526
1397 1393 1391 1390 1389 1391 1394 1399 1405 1412 1417 1421 1423 1427 1430 1431 1433 1433 1435 1438 1442 1448 1454 1463 1474 1481 1487 1494 1501 1508 1514 1521
1396 1391 1388 1387 1387 1388 1393 1399 1402 1408 1414 1417 1419 1421 1424 1427 1431 1432 1435 1439 1444 1449 1456 1464 1471 1477 1484 1491 1499 1505 1510 1515
1395 1389 1384 1384 1383 1384 1389 1395 1399 1405 1411 1414 1416 1419 1423 1426 1430 1432 1435 1440 1444 1448 1455 1461 1468 1474 1482 1488 1494 1501 1506 1512
1393 1388 1380 1379 1379 1379 1384 1389 1395 1401 1408 1411 1412 1415 1420 1425 1428 1430 1434 1438 1442 1447 1452 1459 1464 1471 1477 1484 1491 1497 1503 1509
1391 1384 1379 1376 1376 1378 1381 1385 1389 1395 1403 1408 1410 1413 1418 1422 1426 1428 1431 1435 1439 1444 1449 1454 1460 1466 1472 1479 1486 1492 1499 1505
1387 1383 1377 1376 1374 1376 1378 1381 1385 1390 1398 1403 1406 1410 1414 1419 1423 1426 1429 1432 1436 1440 1445 1448 1452 1460 1466 1473 1481 1489 1496 1503
1384 1380 1376 1375 1372 1373 1376 1378 1382 1386 1393 1398 1403 1407 1411 1415 1419 1422 1425 1428 1431 1436 1438 1442 1446 1453 1459 1466 1473 1481 1490 1498
1381 1377 1374 1370 1368 1369 1372 1377 1382 1385 1389 1394 1401 1405 1409 1412 1416 1418 1420 1424 1427 1428 1429 1434 1434 1443 1451 1458 1465 1474 1482 1490
1381 1375 1371 1365 1364 1365 1367 1372 1378 1385 1389 1393 1398 1403 1406 1410 1412 1414 1417 1419 1421 1421 1419 1423 1429 1434 1442 1450 1457 1466 1474 1483
1380 1375 1369 1363 1362 1362 1364 1368 1375 1382 1389 1392 1397 1402 1404 1407 1409 1411 1414 1415 1416 1417 1419 1421 1427 1431 1435 1444 1451 1458 1466 1477
1378 1378 1372 1366 1363 1361 1362 1366 1371 1379 1386 1391 1395 1400 1403 1405 1407 1410 1412 1413 1415 1417 1418 1421 1425 1430 1436 1438 1446 1453 1462 1472
1382 1383 1378 1372 1365 1361 1361 1364 1368 1376 1382 1389 1392 1396 1400 1404 1407 1410 1411 1414 1415 1417 1420 1423 1425 1428 1433 1438 1443 1452 1460 1468
1385 1384 1377 1368 1364 1362 1361 1362 1366 1372 1378 1385 1388 1393 1398 1402 1407 1410 1412 1414 1416 1419 1421 1424 1427 1430 1434 1438 1443 1453 1458 1466
1382 1381 1377 1370 1364 1361 1360 1360 1364 1369 1374 1380 1385 1390 1395 1400 1405 1408 1411 1414 1416 1418 1421 1426 1429 1432 1437 1440 1446 1452 1457 1462
1382 1379 1373 1368 1363 1361 1360 1358 1361 1365 1370 1375 1381 1387 1391 1396 1401 1406 1409 1412 1415 1418 1422 1426 1430 1434 1438 1442 1447 1451 1456 1461
1379 1374 1370 1368 1363 1359 1357 1359 1359 1362 1366 1372 1378 1384 1388 1393 1398 1401 1406 1411 1415 1418 1422 1426 1430 1435 1439 1443 1447 1450 1454 1458